METAR Formatted Surface Weather Observation
Issued by NWS

Home | Current Version | Previous Version | Text Only | Print | Product List | Glossary On
Versions: 1 2 3 4 5 6 7 8 9 10 11 12 13 14 15 16 17 18 19 20 21 22 23 24 25 26 27 28 29 30 31 32 33 34 35 36 37 38 39 40 41 42 43 44 45 46 47 48 49 50
000
SAUS46 KPDT 011757
MTRMEH
METAR KMEH 011756Z AUTO 00000KT 10SM -RA OVC037 01/M01 A3007 RMK AO2
UPB04E16RAB16 SLP208 P0001 60001 T00061011 10011 21011 56002



USA.gov is the U.S. government's official web portal to all federal, state and local government web resources and services.